Appleton, WI

10:53 AM CST on December 09, 2019 (GMT -0600)
Outagamie County Regional

Weather History for KATW - October, 2019

Change the Weather History Date:

Friday, October 18, 2019

  Actual Average Record
Temperature  
Mean Temperature 45 °F -  
Max Temperature 55 °F 54 °F 80 °F (1950)
Min Temperature 35 °F 37 °F 20 °F (1948)
Degree Days  
Heating Degree Days 20    
Moisture  
Dew Point 35 °F    
Average Humidity 77    
Maximum Humidity 100    
Minimum Humidity 47    
Precipitation  
Precipitation 0.00 in - - ()
Sea Level Pressure  
Sea Level Pressure 29.97 in    
Wind  
Wind Speed 5 mph ()    
Max Wind Speed 17 mph    
Max Gust Speed 21 mph    
Visibility 10.0 miles    
Events      
Averages and records for this station are not official NWS values.
T = Trace of Precipitation, MM = Missing Value Source: Averaged Metar Reports

Daily Weather History Graph

Daily Weather History Graph

Search for Another Location

Airport or City:

Astronomy

Oct. 18, 2019 Rise Set
Actual Time 7:12 AM CDT 6:05 PM CDT
Civil Twilight 6:43 AM CDT 6:34 PM CDT
Nautical Twilight 6:09 AM CDT 7:08 PM CDT
Astronomical Twilight 5:35 AM CDT 7:41 PM CDT
Moon 9:13 PM CDT (10/18) 11:53 AM CDT (10/18)
Length of Visible Light 11h 51m
Length of Day
10h 52m
Waning Gibbous, 78% of the Moon is Illuminated
Oct 18
Waning Gibbous
Oct 21
Last Quarter
Oct 27
New
Nov 4
First Quarter
Nov 12
Full

Hourly Weather History & Observations

Time (CDT) Temp. Windchill Dew Point Humidity Pressure Visibility Wind Dir Wind Speed Gust Speed Precip Events Conditions
12:15 AM 37.4 °F - 35.6 °F 93% 30.01 in 10.0 mi Calm Calm - N/A   Clear
12:35 AM 37.4 °F - 33.8 °F 87% 30.01 in 10.0 mi Calm Calm - N/A   Clear
12:55 AM 37.4 °F 34.9 °F 33.8 °F 87% 30.01 in 10.0 mi South 3.5 mph - N/A   Clear
1:15 AM 37.4 °F 34.9 °F 32.0 °F 81% 30.02 in 10.0 mi South 3.5 mph - N/A   Clear
1:35 AM 37.4 °F 34.9 °F 32.0 °F 81% 30.02 in 10.0 mi SSW 3.5 mph - N/A   Clear
1:55 AM 37.4 °F 34.9 °F 32.0 °F 81% 30.03 in 10.0 mi South 3.5 mph - N/A   Clear
2:15 AM 37.4 °F 33.8 °F 32.0 °F 81% 30.03 in 10.0 mi SSW 4.6 mph - N/A   Clear
2:35 AM 35.6 °F 32.8 °F 32.0 °F 87% 30.03 in 10.0 mi South 3.5 mph - N/A   Clear
2:55 AM 37.4 °F - 32.0 °F 81% 30.03 in 10.0 mi Calm Calm - N/A   Clear
3:15 AM 35.6 °F - 32.0 °F 87% 30.03 in 10.0 mi Calm Calm - N/A   Clear
3:35 AM 35.6 °F - 32.0 °F 87% 30.03 in 10.0 mi Calm Calm - N/A   Clear
3:55 AM 35.6 °F - 32.0 °F 87% 30.02 in 10.0 mi Calm Calm - N/A   Clear
4:15 AM 35.6 °F - 33.8 °F 93% 30.03 in 10.0 mi Calm Calm - N/A   Clear
4:35 AM 35.6 °F 31.7 °F 33.8 °F 93% 30.02 in 10.0 mi South 4.6 mph - N/A   Clear
4:55 AM 35.6 °F 31.7 °F 33.8 °F 93% 30.02 in 10.0 mi South 4.6 mph - N/A   Clear
5:15 AM 35.6 °F 32.8 °F 35.6 °F 100% 30.02 in 10.0 mi South 3.5 mph - N/A   Clear
5:20 AM 37.4 °F 34.9 °F 35.6 °F 93% 30.03 in 10.0 mi Variable 3.5 mph - N/A   Scattered Clouds
5:45 AM 35.6 °F 32.8 °F 33.8 °F 93% 30.02 in 10.0 mi Variable 3.5 mph - N/A   Scattered Clouds
6:45 AM 37.4 °F - 35.6 °F 93% 30.03 in 10.0 mi Calm Calm - N/A   Scattered Clouds
7:45 AM 37.4 °F 34.9 °F 35.6 °F 93% 30.04 in 10.0 mi Variable 3.5 mph - N/A   Mostly Cloudy
8:45 AM 42.8 °F 38.6 °F 39.2 °F 87% 30.03 in 10.0 mi SSE 6.9 mph - N/A   Mostly Cloudy
9:45 AM 46.4 °F 41.5 °F 37.4 °F 71% 30.01 in 10.0 mi SSE 10.4 mph - N/A   Mostly Cloudy
10:45 AM 48.2 °F - 35.6 °F 62% 30.01 in 10.0 mi SSE 15.0 mph - N/A   Mostly Cloudy
11:45 AM 51.8 °F - 35.6 °F 54% 29.99 in 10.0 mi SSE 12.7 mph - N/A   Mostly Cloudy
12:45 PM 53.6 °F - 35.6 °F 51% 29.97 in 10.0 mi SSE 15.0 mph 18.4 mph N/A   Mostly Cloudy
1:45 PM 53.6 °F - 35.6 °F 51% 29.95 in 10.0 mi SSE 17.3 mph 20.7 mph N/A   Mostly Cloudy
2:45 PM 55.4 °F - 35.6 °F 47% 29.91 in 10.0 mi SSE 12.7 mph - N/A   Mostly Cloudy
3:45 PM 53.6 °F - 33.8 °F 47% 29.89 in 10.0 mi SSE 11.5 mph - N/A   Mostly Cloudy
4:45 PM 55.4 °F - 35.6 °F 47% 29.87 in 10.0 mi SE 16.1 mph - N/A   Mostly Cloudy
5:45 PM 51.8 °F - 37.4 °F 58% 29.86 in 10.0 mi SE 12.7 mph - N/A   Scattered Clouds
6:45 PM 48.2 °F - 37.4 °F 66% 29.86 in 10.0 mi SE 13.8 mph - N/A   Scattered Clouds
7:45 PM 46.4 °F 40.4 °F 37.4 °F 71% 29.86 in 10.0 mi SE 13.8 mph - N/A   Scattered Clouds
8:45 PM 46.4 °F 41.1 °F 37.4 °F 71% 29.85 in 10.0 mi SSE 11.5 mph - N/A   Scattered Clouds
9:45 PM 46.4 °F 41.9 °F 37.4 °F 71% 29.86 in 10.0 mi SSE 9.2 mph - N/A   Scattered Clouds
10:45 PM 46.4 °F 41.9 °F 37.4 °F 71% 29.85 in 10.0 mi SSE 9.2 mph - N/A   Scattered Clouds
10:55 PM 44.6 °F 39.2 °F 35.6 °F 71% 29.84 in 10.0 mi SE 10.4 mph - N/A   Clear
11:15 PM 44.6 °F 39.7 °F 37.4 °F 76% 29.84 in 10.0 mi SE 9.2 mph - N/A   Clear
11:35 PM 44.6 °F 38.8 °F 35.6 °F 71% 29.83 in 10.0 mi SE 11.5 mph - N/A   Clear